Weather in Mityayevo

Russia / Kaluga Oblast     55°16′11″N   36°31′53″E
temp.,
°C
wind,
m/s
gust,
m/s
humid.,
%
clouds,
%
prec.,
mm/h
press.,
hPa
HPBL,
m
13 may, thu
thu1300:00+8sse389799 0.1 1018453
03:00+6ese249825 0.1 101980
06:00+7e379572 0.0 1019226
09:00+12ese5972100 0.0 1017611
12:00+16ese51161100 0.0 10161617
15:00+12ese51189100 1.9 1015977
18:00+13sse498560 0.5 1014914
21:00+10se2697100 1.1 1015129
14 may, fri
fri1400:00+8sse259764 0.0 101594
03:00+7sse23961 0.0 101663
06:00+8se259597 0.0 1016132
09:00+14se358289 0.0 1016427
12:00+19sse4756100 0.0 10151364
15:00+21se575712 0.0 10131471
18:00+14nne2498100 10.6 1010185
21:00+14e2598100 24.7 1010120
15 may, sat
sat1500:00+14se31197100 2.3 1010341
03:00+12se379884 2.8 1009153
06:00+13se2797100 0.0 1009178
09:00+17s3686100 0.0 1008450
12:00+20s587095 0.4 10081257
15:00+20ssw69621 0.9 10081674
18:00+16ssw510875 1.9 1009938
21:00+13ssw412965 2.6 1010565
16 may, sun
sun1600:00+12ssw413973 0.0 1011455
03:00+10s3998100 0.0 1013239
06:00+11s279716 0.0 1013239
09:00+16ssw468010 0.0 1014664
12:00+19ssw566537 0.3 10141424
15:00+19ssw576717 1.6 10141379
18:00+19sw35670 0.1 1014922
21:00+14wsw11885 0.1 101511
17 may, mon
mon1700:00+12se1191100 0.0 101510
03:00+12e229499 0.0 101624
06:00+13ese2591100 0.0 1015119
09:00+19ese4868100 0.0 1014512
12:00+23ese575680 0.0 10131270
15:00+25se585785 0.0 10111487
18:00+24se5106782 0.1 1010954
21:00+18se4137954 0.1 1010400